FENGYUN 1C DEB, 30057

Orbit data source: Space-Track

FENGYUN 1C DEB, 30057 is space debris in SSO originally from a launch on Mon, 10 May 1999 UTC launched from the Taiyaun Space Center, China (TSC). Fengyun 1C debris stems from the Chinese weather satellite Fengyun-1C, which was intentionally destroyed by a Chinese anti-satellite missile in 2007. This event dramatically increased the amount of space debris, with thousands of trackable fragments posing hazards to satellites and human spaceflight. The Fengyun 1C debris cloud has become a focal point in discussions about space sustainability and the need for international regulations to prevent the creation of new debris.

Loading next visibility...
Identifier
30057, 1999-025PJ
Orbit
SSO
Country
Flag of CNCN / PRC
Related business
Manufacturer
Unknown
Mission
Spacecraft
Bus & Motor
Unknown
Mass
Unknown
Launch date (UTC)
1999-05-10 (27 years ago)
Launch vehicle
Unknown
Launch site
Taiyaun Space Center, China (TSC)
Object type
Payload
Rocket body
Debris
Shape & HBR
Unknown shape, 0.1 m
Radar Cross Section
Medium (>0.1 m² and <1 m²)

Expand to show TLE details & history
Last TLE update: 18 hours ago

TLE from 18 hours ago
0 FENGYUN 1C DEB
1 30057U 99025PJ  26254.64820169  .00000715  00000-0  79321-3 0  9993
2 30057  98.8633 302.1753 0291744 160.6373 329.3602 13.57662710969386
Epoch: 2026-09-11T15:33Z
TLE epoch observation values (Epoch: 2026-09-11T15:33:24.626Z)
Latitude
51.00136°
Longitude
-90.80209°
Altitude
867.677 km
Speed
7.515 km/s
True Right ascension
08h 52m 52s
True Declination
50° 50' 08"
Sunlit
Object was in daylight at epoch
Visualization orbit readout
Latitude
Unknown
Longitude
Unknown
Altitude
Unknown
Speed
Unknown
Apparent Right ascension
Unknown
Apparent Declination
Unknown
Sunlit
N/A
Visualization observer readout
Local Sidereal Time
02:13:22
Azimuth
Unknown
Elevation
Unknown
Doppler factor
Unknown
Orbital elements
Apogee altitude
1,257.907 km
Perigee altitude
824.983 km
Semi-major axis
7,419.582 km
Eccentricity
0.02917
Inclination
98.8633°
RAAN
302.1753°
Arg. of periapsis
160.6373°
True anomaly
327.60157°
Mean anomaly
329.3602°
Eccentric anomaly
328.48647°
Mean motion
3.39605 °/min
Orbital period
106.01 mins
BSTAR
0.00079321
Loading maneuver chart data...
Computing Atmospheric mass density...

Documentation

Showing up to 5 results
|